Station Historical Data
Daily Summary for January 31, 2012 Units:  English    Metric   Both
« Previous Day
Next Day »
Daily Weekly Monthly Yearly Custom
  High: Low: Average:
Temperature: 65.3 °F 43.6 °F 53.7 °F
Dew Point: 47.3 °F 25.3 °F 34 °F
Humidity: 77% 33% 48%
Wind Speed: 18.0mph 2.0mph 5.7mph
Wind Gust: 20.0mph - -
Wind- - SSE
Pressure: 30.31 in 30.16 in -
Precipitation: 0.00 in    
Historical Graphs
 
 
Tabular Data for January 31, 2012
Time Temperature Dew Point Pressure Wind Wind Speed Wind Gust Humidity Rainfall Rate (Hourly) Conditions
00:00 47.0 °F 26.2 °F 30.28 in SSE 6.0 mph 8.0 mph 44% 0.00 in
00:05 47.2 °F 26.4 °F 30.28 in SE 7.0 mph 7.0 mph 44% 0.00 in
00:11 47.5 °F 26.7 °F 30.28 in SE 4.0 mph 7.0 mph 44% 0.00 in
00:16 47.5 °F 25.6 °F 30.28 in SSE 4.0 mph 5.0 mph 42% 0.00 in
00:21 47.5 °F 26.1 °F 30.28 in SSE 5.0 mph 5.0 mph 43% 0.00 in
00:26 47.4 °F 26.0 °F 30.28 in SE 3.0 mph 4.0 mph 43% 0.00 in
00:31 47.3 °F 26.0 °F 30.28 in SSE 4.0 mph 5.0 mph 43% 0.00 in
00:36 47.3 °F 26.0 °F 30.28 in SSE 3.0 mph 5.0 mph 43% 0.00 in
00:41 47.1 °F 26.3 °F 30.29 in SSE 3.0 mph 4.0 mph 44% 0.00 in
00:46 46.7 °F 26.5 °F 30.29 in SE 3.0 mph 3.0 mph 45% 0.00 in
00:51 46.7 °F 26.0 °F 30.29 in SSE 4.0 mph 5.0 mph 44% 0.00 in
00:56 46.8 °F 26.0 °F 30.29 in SE 4.0 mph 5.0 mph 44% 0.00 in
01:01 47.0 °F 25.7 °F 30.28 in SE 3.0 mph 6.0 mph 43% 0.00 in
01:06 47.1 °F 25.8 °F 30.28 in SSE 4.0 mph 7.0 mph 43% 0.00 in
01:11 46.8 °F 25.5 °F 30.29 in SSE 3.0 mph 5.0 mph 43% 0.00 in
01:16 46.4 °F 25.7 °F 30.28 in SE 4.0 mph 5.0 mph 44% 0.00 in
01:21 46.3 °F 26.1 °F 30.28 in SSE 3.0 mph 5.0 mph 45% 0.00 in
01:26 46.2 °F 26.0 °F 30.28 in SSE 4.0 mph 6.0 mph 45% 0.00 in
01:31 45.8 °F 26.2 °F 30.28 in SSE 4.0 mph 4.0 mph 46% 0.00 in
01:36 45.2 °F 26.2 °F 30.28 in SSE 4.0 mph 5.0 mph 47% 0.00 in
01:41 45.1 °F 26.1 °F 30.28 in SE 4.0 mph 6.0 mph 47% 0.00 in
01:46 45.4 °F 25.9 °F 30.28 in SE 5.0 mph 6.0 mph 46% 0.00 in
01:51 45.8 °F 25.7 °F 30.28 in SSE 7.0 mph 7.0 mph 45% 0.00 in
01:56 46.0 °F 25.9 °F 30.28 in SE 5.0 mph 6.0 mph 45% 0.00 in
02:01 45.9 °F 25.8 °F 30.28 in SE 5.0 mph 5.0 mph 45% 0.00 in
02:06 46.0 °F 25.3 °F 30.28 in SE 4.0 mph 6.0 mph 44% 0.00 in
02:11 46.1 °F 26.0 °F 30.28 in SSE 3.0 mph 6.0 mph 45% 0.00 in
02:16 45.8 °F 25.7 °F 30.28 in SE 4.0 mph 6.0 mph 45% 0.00 in
02:21 45.7 °F 26.1 °F 30.28 in SE 4.0 mph 7.0 mph 46% 0.00 in
02:26 45.6 °F 26.0 °F 30.28 in SE 6.0 mph 7.0 mph 46% 0.00 in
02:31 45.6 °F 25.5 °F 30.28 in SSE 6.0 mph 6.0 mph 45% 0.00 in
02:37 45.6 °F 25.5 °F 30.28 in SSE 4.0 mph 6.0 mph 45% 0.00 in
02:42 45.5 °F 25.9 °F 30.28 in SE 4.0 mph 6.0 mph 46% 0.00 in
02:47 45.3 °F 25.8 °F 30.28 in SE 5.0 mph 6.0 mph 46% 0.00 in
02:52 45.2 °F 26.2 °F 30.28 in SE 4.0 mph 6.0 mph 47% 0.00 in
02:57 45.2 °F 26.2 °F 30.28 in SE 4.0 mph 6.0 mph 47% 0.00 in
03:02 44.7 °F 26.2 °F 30.28 in SSE 4.0 mph 4.0 mph 48% 0.00 in
03:07 44.5 °F 26.0 °F 30.28 in SE 2.0 mph 5.0 mph 48% 0.00 in
03:12 44.6 °F 26.1 °F 30.28 in SSE 4.0 mph 6.0 mph 48% 0.00 in
03:17 44.7 °F 26.2 °F 30.27 in SE 4.0 mph 5.0 mph 48% 0.00 in
03:22 44.4 °F 26.5 °F 30.27 in SSE 4.0 mph 5.0 mph 49% 0.00 in
03:27 44.1 °F 26.7 °F 30.27 in SE 4.0 mph 4.0 mph 50% 0.00 in
03:32 44.0 °F 26.6 °F 30.27 in SSE 4.0 mph 6.0 mph 50% 0.00 in
03:37 44.1 °F 26.7 °F 30.27 in SSE 3.0 mph 5.0 mph 50% 0.00 in
03:42 44.0 °F 27.0 °F 30.27 in SE 5.0 mph 8.0 mph 51% 0.00 in
03:47 44.2 °F 26.8 °F 30.27 in SSE 7.0 mph 7.0 mph 50% 0.00 in
03:52 44.3 °F 27.3 °F 30.27 in SSE 3.0 mph 6.0 mph 51% 0.00 in
03:57 43.8 °F 26.9 °F 30.27 in SE 4.0 mph 5.0 mph 51% 0.00 in
04:02 43.6 °F 27.1 °F 30.27 in SE 6.0 mph 6.0 mph 52% 0.00 in
04:07 44.0 °F 27.0 °F 30.26 in SE 6.0 mph 7.0 mph 51% 0.00 in
04:12 44.3 °F 27.3 °F 30.26 in SSE 4.0 mph 7.0 mph 51% 0.00 in
04:17 44.3 °F 27.3 °F 30.26 in SSE 3.0 mph 6.0 mph 51% 0.00 in
04:22 44.1 °F 27.1 °F 30.26 in SSE 4.0 mph 5.0 mph 51% 0.00 in
04:27 44.0 °F 27.0 °F 30.26 in SSE 5.0 mph 6.0 mph 51% 0.00 in
04:32 44.0 °F 27.5 °F 30.26 in SSE 5.0 mph 6.0 mph 52% 0.00 in
04:37 43.9 °F 27.4 °F 30.26 in SSE 4.0 mph 5.0 mph 52% 0.00 in
04:42 43.7 °F 27.2 °F 30.26 in SE 5.0 mph 6.0 mph 52% 0.00 in
04:47 43.7 °F 27.2 °F 30.26 in SE 4.0 mph 5.0 mph 52% 0.00 in
04:52 43.8 °F 27.3 °F 30.26 in SE 6.0 mph 6.0 mph 52% 0.00 in
04:57 44.4 °F 26.9 °F 30.26 in South 8.0 mph 8.0 mph 50% 0.00 in
05:02 44.9 °F 27.4 °F 30.26 in SSE 6.0 mph 8.0 mph 50% 0.00 in
05:07 45.2 °F 27.2 °F 30.26 in SE 4.0 mph 8.0 mph 49% 0.00 in
05:12 45.1 °F 27.1 °F 30.26 in SSE 5.0 mph 7.0 mph 49% 0.00 in
05:17 45.0 °F 27.5 °F 30.26 in SE 4.0 mph 7.0 mph 50% 0.00 in
05:22 44.5 °F 28.0 °F 30.26 in SE 4.0 mph 6.0 mph 52% 0.00 in
05:27 44.2 °F 28.2 °F 30.26 in South 4.0 mph 6.0 mph 53% 0.00 in
05:32 44.4 °F 28.4 °F 30.26 in SSE 3.0 mph 6.0 mph 53% 0.00 in
05:37 44.8 °F 28.3 °F 30.26 in SSE 4.0 mph 6.0 mph 52% 0.00 in
05:43 45.2 °F 29.1 °F 30.27 in SE 4.0 mph 5.0 mph 53% 0.00 in
05:48 45.5 °F 28.9 °F 30.27 in SSE 5.0 mph 5.0 mph 52% 0.00 in
05:53 45.8 °F 28.2 °F 30.27 in SSE 3.0 mph 6.0 mph 50% 0.00 in
05:58 45.9 °F 29.3 °F 30.27 in South 3.0 mph 5.0 mph 52% 0.00 in
06:03 45.9 °F 28.3 °F 30.27 in SE 3.0 mph 4.0 mph 50% 0.00 in
06:08 46.0 °F 28.4 °F 30.27 in South 3.0 mph 5.0 mph 50% 0.00 in
06:13 46.0 °F 28.9 °F 30.27 in SSE 3.0 mph 6.0 mph 51% 0.00 in
06:18 45.9 °F 29.3 °F 30.27 in SE 6.0 mph 6.0 mph 52% 0.00 in
06:23 46.0 °F 29.4 °F 30.27 in South 3.0 mph 7.0 mph 52% 0.00 in
06:28 46.1 °F 29.5 °F 30.27 in SE 5.0 mph 6.0 mph 52% 0.00 in
06:33 46.0 °F 29.4 °F 30.27 in SSE 3.0 mph 5.0 mph 52% 0.00 in
06:38 46.1 °F 29.9 °F 30.27 in SE 3.0 mph 4.0 mph 53% 0.00 in
06:43 46.0 °F 29.8 °F 30.28 in SE 4.0 mph 5.0 mph 53% 0.00 in
06:48 46.1 °F 29.5 °F 30.28 in SSE 5.0 mph 6.0 mph 52% 0.00 in
06:53 46.3 °F 29.6 °F 30.28 in SSE 4.0 mph 7.0 mph 52% 0.00 in
06:58 46.3 °F 29.6 °F 30.27 in South 5.0 mph 6.0 mph 52% 0.00 in
07:03 46.5 °F 29.4 °F 30.28 in SSE 3.0 mph 4.0 mph 51% 0.00 in
07:08 46.5 °F 29.8 °F 30.28 in SSE 3.0 mph 3.0 mph 52% 0.00 in
07:13 46.4 °F 29.8 °F 30.28 in SE 3.0 mph 5.0 mph 52% 0.00 in
07:18 46.6 °F 29.5 °F 30.28 in SE 5.0 mph 7.0 mph 51% 0.00 in
07:23 46.9 °F 28.8 °F 30.28 in SE 4.0 mph 7.0 mph 49% 0.00 in
07:28 47.0 °F 29.3 °F 30.28 in SSE 4.0 mph 7.0 mph 50% 0.00 in
07:33 46.9 °F 30.2 °F 30.28 in SSE 5.0 mph 6.0 mph 52% 0.00 in
07:38 46.7 °F 29.5 °F 30.28 in SSE 4.0 mph 6.0 mph 51% 0.00 in
07:43 46.7 °F 29.5 °F 30.28 in SE 3.0 mph 4.0 mph 51% 0.00 in
07:48 46.9 °F 29.2 °F 30.28 in SE 3.0 mph 7.0 mph 50% 0.00 in
07:53 47.1 °F 29.4 °F 30.28 in SE 3.0 mph 5.0 mph 50% 0.00 in
07:58 47.0 °F 29.8 °F 30.29 in SSE 3.0 mph 5.0 mph 51% 0.00 in
08:03 47.0 °F 29.8 °F 30.29 in SE 3.0 mph 5.0 mph 51% 0.00 in
08:08 47.1 °F 30.4 °F 30.29 in South 3.0 mph 5.0 mph 52% 0.00 in
08:13 47.1 °F 30.4 °F 30.29 in SSE 3.0 mph 5.0 mph 52% 0.00 in
08:18 47.1 °F 30.9 °F 30.29 in South 4.0 mph 4.0 mph 53% 0.00 in
08:23 47.2 °F 30.5 °F 30.30 in South 4.0 mph 6.0 mph 52% 0.00 in
08:28 47.3 °F 31.0 °F 30.30 in South 5.0 mph 6.0 mph 53% 0.00 in
08:33 47.5 °F 30.3 °F 30.30 in SSE 4.0 mph 7.0 mph 51% 0.00 in
08:38 47.7 °F 31.0 °F 30.30 in South 3.0 mph 7.0 mph 52% 0.00 in
08:43 47.8 °F 30.6 °F 30.30 in South 7.0 mph 8.0 mph 51% 0.00 in
08:48 48.1 °F 30.4 °F 30.30 in SE 5.0 mph 9.0 mph 50% 0.00 in
08:53 49.0 °F 31.2 °F 30.30 in SSE 9.0 mph 11.0 mph 50% 0.00 in
08:58 49.8 °F 30.9 °F 30.30 in SE 5.0 mph 9.0 mph 48% 0.00 in
09:03 50.4 °F 31.0 °F 30.30 in SSE 5.0 mph 9.0 mph 47% 0.00 in
09:08 51.0 °F 31.0 °F 30.30 in SE 4.0 mph 10.0 mph 46% 0.00 in
09:13 51.5 °F 30.9 °F 30.30 in SSE 7.0 mph 9.0 mph 45% 0.00 in
09:18 52.1 °F 32.0 °F 30.30 in SSE 4.0 mph 8.0 mph 46% 0.00 in
09:23 52.4 °F 30.6 °F 30.30 in South 8.0 mph 11.0 mph 43% 0.00 in
09:28 52.8 °F 30.9 °F 30.30 in SSE 9.0 mph 9.0 mph 43% 0.00 in
09:34 53.0 °F 31.1 °F 30.30 in SE 11.0 mph 11.0 mph 43% 0.00 in
09:39 53.3 °F 30.8 °F 30.30 in SSW 2.0 mph 7.0 mph 42% 0.00 in
09:44 53.4 °F 30.3 °F 30.30 in South 5.0 mph 8.0 mph 41% 0.00 in
09:49 53.8 °F 30.1 °F 30.31 in South 3.0 mph 7.0 mph 40% 0.00 in
09:54 54.1 °F 29.1 °F 30.30 in SSE 10.0 mph 11.0 mph 38% 0.00 in
09:59 54.0 °F 28.3 °F 30.30 in SSE 11.0 mph 14.0 mph 37% 0.00 in
10:04 54.3 °F 29.9 °F 30.31 in South 11.0 mph 11.0 mph 39% 0.00 in
10:09 54.5 °F 28.8 °F 30.31 in South 5.0 mph 11.0 mph 37% 0.00 in
10:14 54.9 °F 29.8 °F 30.31 in SSE 6.0 mph 15.0 mph 38% 0.00 in
10:19 55.1 °F 30.0 °F 30.31 in SSW 5.0 mph 11.0 mph 38% 0.00 in
10:24 55.4 °F 30.2 °F 30.31 in SSE 4.0 mph 10.0 mph 38% 0.00 in
10:29 55.8 °F 30.6 °F 30.31 in SSE 7.0 mph 10.0 mph 38% 0.00 in
10:34 56.4 °F 31.8 °F 30.31 in South 11.0 mph 15.0 mph 39% 0.00 in
10:39 56.9 °F 30.9 °F 30.30 in SSE 10.0 mph 12.0 mph 37% 0.00 in
10:44 57.5 °F 30.8 °F 30.30 in SE 11.0 mph 17.0 mph 36% 0.00 in
10:49 57.6 °F 30.2 °F 30.30 in SSE 10.0 mph 14.0 mph 35% 0.00 in
10:54 58.1 °F 31.3 °F 30.30 in SSE 11.0 mph 16.0 mph 36% 0.00 in
10:59 58.1 °F 29.9 °F 30.30 in SW 9.0 mph 14.0 mph 34% 0.00 in
11:04 58.3 °F 30.8 °F 30.30 in SSW 8.0 mph 10.0 mph 35% 0.00 in
11:09 58.6 °F 31.0 °F 30.30 in SSE 8.0 mph 20.0 mph 35% 0.00 in
11:14 58.0 °F 29.1 °F 30.30 in South 6.0 mph 16.0 mph 33% 0.00 in
11:19 57.0 °F 29.6 °F 30.30 in SSE 7.0 mph 13.0 mph 35% 0.00 in
11:24 56.3 °F 29.0 °F 30.30 in South 9.0 mph 15.0 mph 35% 0.00 in
11:29 56.0 °F 30.1 °F 30.30 in SSE 5.0 mph 9.0 mph 37% 0.00 in
11:34 55.8 °F 29.3 °F 30.29 in SSW 6.0 mph 10.0 mph 36% 0.00 in
11:39 55.8 °F 30.6 °F 30.29 in South 12.0 mph 12.0 mph 38% 0.00 in
11:44 55.9 °F 30.7 °F 30.29 in SE 7.0 mph 9.0 mph 38% 0.00 in
11:49 56.0 °F 32.0 °F 30.29 in South 7.0 mph 9.0 mph 40% 0.00 in
11:54 56.0 °F 32.0 °F 30.29 in SE 7.0 mph 10.0 mph 40% 0.00 in
11:59 55.8 °F 31.2 °F 30.29 in SSE 6.0 mph 11.0 mph 39% 0.00 in
12:04 55.8 °F 29.9 °F 30.28 in SE 7.0 mph 13.0 mph 37% 0.00 in
12:09 56.0 °F 30.1 °F 30.28 in SSE 7.0 mph 13.0 mph 37% 0.00 in
12:14 56.6 °F 31.3 °F 30.28 in SE 4.0 mph 11.0 mph 38% 0.00 in
12:20 57.6 °F 30.9 °F 30.28 in SSW 10.0 mph 14.0 mph 36% 0.00 in
12:21 57.6 °F 30.2 °F 30.27 in SSE 11.0 mph 14.0 mph 35% 0.00 in
12:26 57.6 °F 30.2 °F 30.27 in SSE 9.0 mph 12.0 mph 35% 0.00 in
12:31 57.7 °F 32.3 °F 30.27 in SSW 5.0 mph 14.0 mph 38% 0.00 in
12:36 57.8 °F 33.0 °F 30.26 in South 7.0 mph 12.0 mph 39% 0.00 in
12:41 58.1 °F 33.3 °F 30.26 in South 12.0 mph 15.0 mph 39% 0.00 in
12:46 58.4 °F 32.9 °F 30.25 in SE 10.0 mph 11.0 mph 38% 0.00 in
12:51 58.9 °F 33.4 °F 30.25 in SE 9.0 mph 13.0 mph 38% 0.00 in
12:56 59.9 °F 33.6 °F 30.25 in South 5.0 mph 10.0 mph 37% 0.00 in
13:01 60.5 °F 34.1 °F 30.24 in SSE 8.0 mph 14.0 mph 37% 0.00 in
13:06 60.9 °F 34.5 °F 30.24 in South 9.0 mph 12.0 mph 37% 0.00 in
13:11 61.1 °F 35.3 °F 30.23 in SE 12.0 mph 14.0 mph 38% 0.00 in
13:16 61.3 °F 34.8 °F 30.23 in South 7.0 mph 17.0 mph 37% 0.00 in
13:21 61.6 °F 33.7 °F 30.22 in SSE 5.0 mph 15.0 mph 35% 0.00 in
13:26 61.8 °F 36.0 °F 30.22 in South 7.0 mph 15.0 mph 38% 0.00 in
13:31 62.3 °F 35.7 °F 30.22 in SSW 11.0 mph 13.0 mph 37% 0.00 in
13:36 62.4 °F 35.8 °F 30.21 in SE 12.0 mph 15.0 mph 37% 0.00 in
13:41 62.1 °F 34.2 °F 30.21 in South 4.0 mph 12.0 mph 35% 0.00 in
13:46 62.1 °F 34.8 °F 30.20 in SSW 6.0 mph 12.0 mph 36% 0.00 in
13:51 62.1 °F 35.5 °F 30.20 in SE 11.0 mph 11.0 mph 37% 0.00 in
13:56 62.1 °F 36.2 °F 30.20 in South 6.0 mph 11.0 mph 38% 0.00 in
14:01 61.9 °F 35.4 °F 30.20 in SSE 9.0 mph 17.0 mph 37% 0.00 in
14:06 62.0 °F 36.1 °F 30.19 in SSW 5.0 mph 11.0 mph 38% 0.00 in
14:11 62.1 °F 35.5 °F 30.19 in SE 11.0 mph 13.0 mph 37% 0.00 in
14:16 62.3 °F 35.7 °F 30.18 in SSE 6.0 mph 14.0 mph 37% 0.00 in
14:21 63.0 °F 37.0 °F 30.19 in SSW 7.0 mph 11.0 mph 38% 0.00 in
14:26 62.9 °F 36.2 °F 30.18 in South 8.0 mph 15.0 mph 37% 0.00 in
14:31 62.6 °F 36.0 °F 30.18 in SSE 9.0 mph 14.0 mph 37% 0.00 in
14:36 63.0 °F 35.7 °F 30.18 in SE 18.0 mph 18.0 mph 36% 0.00 in
14:42 63.6 °F 34.7 °F 30.18 in SSE 14.0 mph 16.0 mph 34% 0.00 in
14:47 64.2 °F 36.7 °F 30.18 in South 6.0 mph 13.0 mph 36% 0.00 in
14:52 65.3 °F 37.0 °F 30.17 in SSE 10.0 mph 16.0 mph 35% 0.00 in
14:57 65.2 °F 35.4 °F 30.18 in South 13.0 mph 13.0 mph 33% 0.00 in
15:02 64.3 °F 35.4 °F 30.18 in SE 8.0 mph 16.0 mph 34% 0.00 in
15:07 63.4 °F 35.3 °F 30.18 in SSE 12.0 mph 14.0 mph 35% 0.00 in
15:12 64.1 °F 36.6 °F 30.17 in South 8.0 mph 16.0 mph 36% 0.00 in
15:17 64.6 °F 35.6 °F 30.17 in South 8.0 mph 16.0 mph 34% 0.00 in
15:22 64.6 °F 37.1 °F 30.17 in SSE 11.0 mph 15.0 mph 36% 0.00 in
15:27 64.5 °F 37.0 °F 30.17 in SSW 14.0 mph 17.0 mph 36% 0.00 in
15:32 64.4 °F 36.9 °F 30.17 in SE 12.0 mph 15.0 mph 36% 0.00 in
15:37 64.5 °F 37.0 °F 30.17 in SE 16.0 mph 18.0 mph 36% 0.00 in
15:42 64.6 °F 37.8 °F 30.17 in South 11.0 mph 14.0 mph 37% 0.00 in
15:47 65.0 °F 36.7 °F 30.17 in South 12.0 mph 13.0 mph 35% 0.00 in
15:52 65.2 °F 36.9 °F 30.17 in South 9.0 mph 14.0 mph 35% 0.00 in
15:57 65.1 °F 36.8 °F 30.17 in SSW 3.0 mph 13.0 mph 35% 0.00 in
16:02 64.9 °F 37.3 °F 30.16 in South 7.0 mph 12.0 mph 36% 0.00 in
16:07 64.8 °F 36.5 °F 30.16 in SSW 11.0 mph 11.0 mph 35% 0.00 in
16:12 64.3 °F 36.8 °F 30.16 in SSW 6.0 mph 13.0 mph 36% 0.00 in
16:17 64.5 °F 38.3 °F 30.16 in South 7.0 mph 10.0 mph 38% 0.00 in
16:22 65.1 °F 38.9 °F 30.16 in SSE 5.0 mph 9.0 mph 38% 0.00 in
16:27 64.5 °F 37.7 °F 30.16 in SSE 8.0 mph 12.0 mph 37% 0.00 in
16:33 63.3 °F 38.0 °F 30.16 in South 6.0 mph 10.0 mph 39% 0.00 in
16:38 62.7 °F 38.7 °F 30.16 in SE 10.0 mph 11.0 mph 41% 0.00 in
16:43 62.3 °F 39.5 °F 30.16 in SE 5.0 mph 6.0 mph 43% 0.00 in
16:48 62.3 °F 39.5 °F 30.16 in SSE 5.0 mph 8.0 mph 43% 0.00 in
16:53 62.8 °F 38.8 °F 30.16 in SSE 7.0 mph 15.0 mph 41% 0.00 in
16:58 63.2 °F 38.5 °F 30.16 in South 15.0 mph 15.0 mph 40% 0.00 in
17:03 62.8 °F 38.8 °F 30.16 in SE 5.0 mph 8.0 mph 41% 0.00 in
17:08 62.3 °F 38.9 °F 30.16 in SSE 5.0 mph 8.0 mph 42% 0.00 in
17:13 61.9 °F 38.6 °F 30.16 in SSE 6.0 mph 11.0 mph 42% 0.00 in
17:18 61.8 °F 39.1 °F 30.16 in SE 5.0 mph 8.0 mph 43% 0.00 in
17:23 61.6 °F 39.5 °F 30.16 in SE 5.0 mph 6.0 mph 44% 0.00 in
17:28 61.4 °F 39.9 °F 30.16 in SSE 5.0 mph 7.0 mph 45% 0.00 in
17:33 61.1 °F 39.6 °F 30.16 in SE 3.0 mph 5.0 mph 45% 0.00 in
17:38 60.9 °F 39.4 °F 30.16 in SE 6.0 mph 11.0 mph 45% 0.00 in
17:43 60.7 °F 39.3 °F 30.16 in SE 6.0 mph 8.0 mph 45% 0.00 in
17:48 60.6 °F 39.2 °F 30.16 in SE 6.0 mph 9.0 mph 45% 0.00 in
17:53 60.4 °F 39.0 °F 30.16 in SE 6.0 mph 8.0 mph 45% 0.00 in
17:58 60.1 °F 38.7 °F 30.16 in SE 4.0 mph 5.0 mph 45% 0.00 in
18:03 59.9 °F 39.1 °F 30.16 in SE 5.0 mph 6.0 mph 46% 0.00 in
18:08 59.9 °F 39.6 °F 30.16 in SE 4.0 mph 7.0 mph 47% 0.00 in
18:13 59.7 °F 39.5 °F 30.16 in ESE 5.0 mph 8.0 mph 47% 0.00 in
18:18 59.3 °F 39.6 °F 30.16 in SE 5.0 mph 6.0 mph 48% 0.00 in
18:23 59.1 °F 39.5 °F 30.16 in SE 3.0 mph 7.0 mph 48% 0.00 in
18:28 59.0 °F 39.4 °F 30.16 in ESE 5.0 mph 8.0 mph 48% 0.00 in
18:33 59.0 °F 39.9 °F 30.16 in ESE 5.0 mph 9.0 mph 49% 0.00 in
18:38 58.7 °F 40.1 °F 30.16 in SE 4.0 mph 5.0 mph 50% 0.00 in
18:43 58.4 °F 40.4 °F 30.16 in SE 4.0 mph 7.0 mph 51% 0.00 in
18:49 58.2 °F 40.2 °F 30.16 in SE 5.0 mph 7.0 mph 51% 0.00 in
18:54 58.2 °F 40.2 °F 30.16 in SE 4.0 mph 9.0 mph 51% 0.00 in
18:59 58.0 °F 40.0 °F 30.17 in SE 3.0 mph 6.0 mph 51% 0.00 in
19:04 57.8 °F 40.3 °F 30.17 in ESE 5.0 mph 5.0 mph 52% 0.00 in
19:09 57.7 °F 40.7 °F 30.17 in SE 3.0 mph 6.0 mph 53% 0.00 in
19:14 57.5 °F 40.5 °F 30.17 in SE 3.0 mph 6.0 mph 53% 0.00 in
19:19 57.5 °F 41.0 °F 30.17 in SE 5.0 mph 8.0 mph 54% 0.00 in
19:24 57.5 °F 40.5 °F 30.17 in ESE 4.0 mph 7.0 mph 53% 0.00 in
19:29 57.5 °F 41.0 °F 30.17 in SE 5.0 mph 8.0 mph 54% 0.00 in
19:34 57.6 °F 40.6 °F 30.18 in SSE 4.0 mph 7.0 mph 53% 0.00 in
19:39 57.5 °F 41.0 °F 30.18 in SE 8.0 mph 8.0 mph 54% 0.00 in
19:44 57.4 °F 40.9 °F 30.18 in SE 4.0 mph 7.0 mph 54% 0.00 in
19:49 57.4 °F 40.9 °F 30.18 in SE 5.0 mph 6.0 mph 54% 0.00 in
19:54 57.3 °F 40.8 °F 30.17 in SE 6.0 mph 7.0 mph 54% 0.00 in
19:59 57.2 °F 40.7 °F 30.18 in SE 4.0 mph 8.0 mph 54% 0.00 in
20:04 56.8 °F 40.8 °F 30.18 in SSE 6.0 mph 6.0 mph 55% 0.00 in
20:09 56.6 °F 41.1 °F 30.18 in SSE 4.0 mph 7.0 mph 56% 0.00 in
20:14 56.3 °F 41.3 °F 30.18 in SSE 9.0 mph 9.0 mph 57% 0.00 in
20:19 55.8 °F 41.3 °F 30.18 in SE 6.0 mph 7.0 mph 58% 0.00 in
20:24 55.7 °F 41.6 °F 30.18 in SSE 5.0 mph 7.0 mph 59% 0.00 in
20:29 55.3 °F 41.7 °F 30.18 in SE 3.0 mph 6.0 mph 60% 0.00 in
20:34 55.3 °F 41.7 °F 30.18 in SSE 5.0 mph 7.0 mph 60% 0.00 in
20:39 55.3 °F 42.1 °F 30.18 in SE 5.0 mph 7.0 mph 61% 0.00 in
20:44 55.7 °F 42.0 °F 30.17 in SSE 7.0 mph 8.0 mph 60% 0.00 in
20:49 55.9 °F 42.2 °F 30.17 in SE 3.0 mph 7.0 mph 60% 0.00 in
20:54 55.6 °F 42.4 °F 30.18 in SE 4.0 mph 5.0 mph 61% 0.00 in
20:59 55.3 °F 42.5 °F 30.18 in SE 4.0 mph 8.0 mph 62% 0.00 in
21:04 55.4 °F 42.6 °F 30.17 in South 5.0 mph 7.0 mph 62% 0.00 in
21:10 55.5 °F 43.1 °F 30.18 in SE 5.0 mph 6.0 mph 63% 0.00 in
21:15 55.7 °F 43.3 °F 30.18 in SE 3.0 mph 5.0 mph 63% 0.00 in
21:20 55.8 °F 43.4 °F 30.18 in SSE 6.0 mph 6.0 mph 63% 0.00 in
21:24 56.0 °F 43.6 °F 30.17 in SE 3.0 mph 6.0 mph 63% 0.00 in
21:30 56.0 °F 44.0 °F 30.17 in SE 5.0 mph 6.0 mph 64% 0.00 in
21:35 56.1 °F 44.1 °F 30.17 in SE 4.0 mph 5.0 mph 64% 0.00 in
21:37 56.1 °F 44.1 °F 30.17 in SE 2.0 mph 5.0 mph 64% 0.00 in
21:42 55.9 °F 43.9 °F 30.18 in SSE 6.0 mph 6.0 mph 64% 0.00 in
21:47 56.1 °F 44.5 °F 30.18 in SE 5.0 mph 9.0 mph 65% 0.00 in
21:52 56.1 °F 44.5 °F 30.18 in SE 4.0 mph 6.0 mph 65% 0.00 in
21:57 56.1 °F 44.5 °F 30.18 in SE 4.0 mph 6.0 mph 65% 0.00 in
22:02 56.0 °F 44.4 °F 30.17 in SE 4.0 mph 6.0 mph 65% 0.00 in
22:07 56.0 °F 44.8 °F 30.18 in SSE 4.0 mph 7.0 mph 66% 0.00 in
22:12 56.0 °F 44.8 °F 30.18 in SSE 4.0 mph 6.0 mph 66% 0.00 in
22:17 55.9 °F 44.7 °F 30.18 in SE 4.0 mph 5.0 mph 66% 0.00 in
22:22 55.9 °F 45.1 °F 30.18 in SE 5.0 mph 6.0 mph 67% 0.00 in
22:27 55.9 °F 45.1 °F 30.18 in SE 4.0 mph 5.0 mph 67% 0.00 in
22:33 55.9 °F 45.1 °F 30.18 in SSE 5.0 mph 6.0 mph 67% 0.00 in
22:38 55.7 °F 45.7 °F 30.18 in SE 3.0 mph 6.0 mph 69% 0.00 in
22:43 55.5 °F 45.9 °F 30.17 in SE 3.0 mph 5.0 mph 70% 0.00 in
22:48 55.2 °F 46.3 °F 30.18 in SE 4.0 mph 7.0 mph 72% 0.00 in
22:53 54.8 °F 46.7 °F 30.17 in ESE 4.0 mph 6.0 mph 74% 0.00 in
22:58 54.3 °F 46.9 °F 30.17 in ESE 4.0 mph 5.0 mph 76% 0.00 in
23:03 54.1 °F 46.7 °F 30.17 in ESE 4.0 mph 5.0 mph 76% 0.00 in
23:08 53.8 °F 46.8 °F 30.17 in ESE 4.0 mph 6.0 mph 77% 0.00 in
23:13 53.7 °F 46.3 °F 30.17 in SE 4.0 mph 5.0 mph 76% 0.00 in
23:18 53.8 °F 46.4 °F 30.17 in SE 4.0 mph 6.0 mph 76% 0.00 in
23:23 54.0 °F 46.6 °F 30.17 in SE 4.0 mph 6.0 mph 76% 0.00 in
23:29 54.2 °F 46.8 °F 30.17 in SSE 3.0 mph 7.0 mph 76% 0.00 in
23:34 54.4 °F 47.0 °F 30.16 in SE 6.0 mph 6.0 mph 76% 0.00 in
23:39 54.6 °F 46.8 °F 30.17 in SE 7.0 mph 8.0 mph 75% 0.00 in
23:44 54.7 °F 46.9 °F 30.17 in South 6.0 mph 6.0 mph 75% 0.00 in
23:49 54.8 °F 47.0 °F 30.16 in SSE 7.0 mph 9.0 mph 75% 0.00 in
23:54 54.8 °F 47.0 °F 30.16 in SSE 6.0 mph 11.0 mph 75% 0.00 in
23:59 54.7 °F 47.3 °F 30.16 in SE 7.0 mph 8.0 mph 76% 0.00 in
Compliments of Weather Underground